Regional Weather Roundup
Issued by NWS

Home | Current Version | Previous Version | Text Only | Print | Product List | Glossary Off
Versions: 1 2 3 4 5 6 7 8 9 10 11 12 13 14 15 16 17 18 19 20 21 22 23 24 25 26 27 28 29 30 31 32 33 34 35 36 37 38 39 40 41 42 43 44 45 46 47 48 49 50

000
ASUS43 KOAX 191210
RWRNE

WEATHER ROUNDUP FOR NEBRASKA
NATIONAL WEATHER SERVICE OMAHA NE
700 AM CDT TUE SEP 19 2017

NOTES: SATELLITE DATA IS BEING USED TO AUGMENT CLOUD COVER ABOVE
       12000 FEET.
       "FAIR" INDICATES FEW OR NO CLOUDS BELOW 12,000 FEET WITH NO
       SIGNIFICANT WEATHER AND/OR OBSTRUCTIONS TO VISIBILITY.


NEZ001>004-019>022-054>056-191300-
NEBRASKA PANHANDLE

CITY           SKY/WX    TMP DP  RH WIND       PRES   REMARKS
SCOTTSBLUFF    CLOUDY    53  48  83 E8        29.67F
6HR MIN TEMP:  53; 6HR MAX TEMP:  66;

ALLIANCE       CLOUDY    54  51  90 SE9       29.66F
6HR MIN TEMP:  53; 6HR MAX TEMP:  60;

CHADRON        CLOUDY    65  48  54 S16       29.58F
6HR MIN TEMP:  64; 6HR MAX TEMP:  68;

GORDON         FAIR      62  55  76 S9        29.64F
6HR MIN TEMP:  62; 6HR MAX TEMP:  66;

KIMBALL        CLOUDY    51  46  81 W9        29.72S
SIDNEY         CLOUDY    52  48  86 S8        29.68F
6HR MIN TEMP:  47; 6HR MAX TEMP:  63;

$$

NEZ057>060-069>072-079>082-191300-
SOUTHWEST NEBRASKA

CITY           SKY/WX    TMP DP  RH WIND       PRES   REMARKS
NORTH PLATTE   CLEAR     60  59  96 E10       29.69F
6HR MIN TEMP:  57; 6HR MAX TEMP:  60;

IMPERIAL       CLOUDY    64  60  87 S12       29.68F
6HR MIN TEMP:  58; 6HR MAX TEMP:  64;

LEXINGTON      CLEAR     59  57  94 SE5       29.73F FOG
MCCOOK         CLEAR     67  64  90 S6        29.69F
6HR MIN TEMP:  59; 6HR MAX TEMP:  67;

OGALLALA       CLOUDY    62  57  85 SE6       29.68S
$$

NEZ005>010-023>029-035>040-094-191300-
NORTH CENTRAL NEBRASKA

CITY           SKY/WX    TMP DP  RH WIND       PRES   REMARKS
VALENTINE      CLOUDY    62  58  86 SE6       29.67F
6HR MIN TEMP:  61; 6HR MAX TEMP:  66;

AINSWORTH      CLOUDY    60  60  99 S9        29.69F
BROKEN BOW     CLEAR     59  59 100 SE6       29.73F
6HR MIN TEMP:  52; 6HR MAX TEMP:  66;

O`NEILL        FOG       61  61 100 SE12      29.73F VSB 1/2
ORD            CLOUDY    60  59  96 SE6       29.73F FOG
6HR MIN TEMP:  53; 6HR MAX TEMP:  61;

THEDFORD       CLOUDY    62  59  91 SE7       29.69F
$$

NEZ041-046>049-061>064-073>077-083>087-191300-
SOUTH CENTRAL NEBRASKA

CITY           SKY/WX    TMP DP  RH WIND       PRES   REMARKS
GRAND ISLAND   CLEAR     63  63 100 S8        29.77S
6HR MIN TEMP:  63; 6HR MAX TEMP:  65;

AURORA         CLEAR     63  63 100 S8        29.77F
HASTINGS       CLEAR     64  61  90 S8        29.77F
6HR MIN TEMP:  63; 6HR MAX TEMP:  66;

HEBRON         CLEAR     66  64  94 SE5       29.78F
HOLDREGE       CLEAR     63  61  94 S7        29.74F
KEARNEY        CLEAR     60  59  96 SE6       29.75F
YORK           CLEAR     64  63  94 S6        29.78F
$$

NEZ011>018-030>034-042>045-191300-
NORTHEAST NEBRASKA

CITY           SKY/WX    TMP DP  RH WIND       PRES   REMARKS
NORFOLK        MOCLDY    63  63 100 SE8       29.77F FOG
6HR MIN TEMP:  61; 6HR MAX TEMP:  64;

ALBION         LGT RAIN  63  63  99 SE7       29.77S VSB 1/4
BLAIR          CLOUDY    67  66  97 SE9       29.82S FOG
COLUMBUS       PTCLDY    65  63  93 SE3       29.80R
FREMONT        CLOUDY    67  66  97 SE10      29.81S FOG
TEKAMAH        CLOUDY    67  65  93 SE9       29.81S FOG
6HR MIN TEMP:  64; 6HR MAX TEMP:  67;

WAYNE          CLOUDY    67  64  91 SE12      29.79S FOG
$$

NEZ050>053-065>068-078-088>093-191300-
SOUTHEAST NEBRASKA

CITY           SKY/WX    TMP DP  RH WIND       PRES   REMARKS
LINCOLN        CLEAR     67  64  90 SE10      29.81S
6HR MIN TEMP:  66; 6HR MAX TEMP:  68;

OMAHA EPPLEY   CLOUDY    68  64  87 SE13      29.83R FOG
6HR MIN TEMP:  67; 6HR MAX TEMP:  68;

BEATRICE       CLEAR     66  65  95 SE8       29.81F
FALLS CITY     PTCLDY    65  65 100 SE5       29.84R FOG
6HR MIN TEMP:  65; 6HR MAX TEMP:  67;

NEBRASKA CITY  FOG       66  66 100 SE8       29.84S VSB 3/4
PLATTSMOUTH    CLOUDY    67  67 100 SE8       29.84R FOG
$$

NEZ044-045-051>053-067-191300-
OMAHA AREA

CITY           SKY/WX    TMP DP  RH WIND       PRES   REMARKS
OMAHA EPPLEY   CLOUDY    68  64  87 SE13      29.83R FOG
6HR MIN TEMP:  67; 6HR MAX TEMP:  68;

BLAIR          CLOUDY    67  66  97 SE9       29.82S FOG
FREMONT        CLOUDY    67  66  97 SE10      29.81S FOG
MILLARD        CLOUDY    69  67  94 SE10      29.82S FOG
OFFUTT AFB     CLOUDY    67  65  94 SE12      29.82F
PLATTSMOUTH    CLOUDY    67  67 100 SE8       29.84R FOG
WAHOO          CLOUDY    66  66  98 SE7       29.81R FOG
$$



USA.gov is the U.S. government's official web portal to all federal, state and local government web resources and services.